Theta_e
358 359 359 359 359 357 355 353 352 350 348 348 347 347 347 346 345 346 346 344 345 345 345 345 345 344 343 344 343 343 345 344 346 346 345 344 345 344 343 345 343 342 343 342 344 343 342 341 341 341 343 341 340 339 338 340 341 339 338 336 334 333 332 329 324 324 329 333 332 331 333 334 332 334 333 333 334 335 335 337 337 336 336 336 336
359 359 360 359 358 356 354 352 351 349 348 347 347 347 346 346 346 347 344 344 344 342 343 343 344 344 343 343 344 344 344 345 344 344 344 343 343 344 343 344 343 342 343 342 342 343 343 341 341 342 344 343 340 339 338 337 338 337 336 335 333 332 334 329 326 325 324 330 331 334 332 333 330 335 332 332 333 335 334 335 336 336 336 336 335
359 361 360 358 357 356 353 350 349 347 346 346 343 343 344 345 345 344 343 342 343 342 341 341 343 343 342 342 343 343 344 344 344 343 343 343 342 342 342 342 342 341 340 340 341 342 342 341 340 341 342 341 341 340 339 338 338 337 336 336 335 334 335 334 330 326 324 325 330 330 331 332 330 331 334 333 334 334 332 333 334 335 335 335 334
358 360 359 357 357 355 351 349 348 346 345 345 343 342 341 343 344 344 342 341 337 341 343 342 341 341 340 341 341 342 343 343 343 343 343 343 342 342 343 342 341 341 340 340 340 341 341 340 340 340 341 340 340 340 339 339 338 338 338 339 338 336 336 336 333 329 327 323 327 329 331 331 330 332 333 333 331 331 332 333 334 333 334 334 334
358 358 358 356 354 353 351 348 347 346 345 344 344 342 340 340 341 342 340 340 338 339 340 340 340 339 338 339 340 341 341 342 342 342 342 342 342 341 341 341 341 341 341 342 341 341 341 340 339 341 342 340 340 339 339 340 340 339 337 338 337 337 337 336 336 335 329 325 326 329 330 331 331 331 332 330 330 332 332 332 332 332 333 333 333
358 357 356 354 353 352 350 348 346 345 344 342 342 340 340 342 342 341 340 338 337 338 340 338 338 337 337 338 340 341 342 342 342 342 341 342 342 341 340 340 341 342 343 342 342 343 341 341 341 341 341 339 338 338 340 340 340 339 338 338 337 337 337 336 337 335 333 328 328 325 329 328 328 329 331 331 327 327 328 329 331 331 330 329 329
358 357 355 353 352 351 350 348 346 345 344 343 343 342 340 341 341 339 339 337 335 335 337 338 338 337 338 338 338 339 340 340 342 342 342 342 341 341 340 342 343 344 343 341 340 341 341 341 341 341 341 341 339 339 339 340 339 339 339 338 338 337 336 335 335 335 333 330 329 328 327 329 328 325 328 331 329 327 325 323 323 327 329 328 326
358 356 355 353 352 350 351 350 347 346 345 345 343 341 341 343 343 343 340 336 336 336 336 337 337 337 338 339 339 340 340 340 342 343 342 341 341 341 341 342 342 343 342 342 341 340 341 341 339 341 342 342 342 341 341 339 339 339 339 340 339 337 335 335 334 332 331 330 328 327 327 326 326 328 328 328 325 325 327 325 321 323 324 327 328
357 356 354 352 352 352 351 351 347 345 344 344 343 343 342 342 342 342 339 335 336 337 337 337 336 336 338 338 338 339 339 339 341 342 341 340 341 340 342 343 342 341 340 340 341 342 342 341 340 341 343 341 338 336 336 335 338 337 339 339 338 337 335 334 332 331 330 329 328 329 326 324 325 324 323 323 323 322 325 326 324 325 326 324 326
357 355 353 353 353 352 350 349 346 344 343 342 339 338 339 340 340 340 336 334 335 338 337 338 337 337 337 337 337 338 339 340 336 330 333 341 343 343 343 343 342 340 340 340 339 341 340 340 341 339 336 334 332 330 327 325 325 332 336 336 335 335 334 332 330 330 329 326 326 327 324 322 322 324 323 323 325 326 325 325 322 323 324 323 323
357 355 353 353 353 351 350 348 346 343 343 343 342 340 337 336 335 336 335 334 336 338 338 336 335 336 336 335 336 337 338 339 330 327 327 330 339 343 342 341 341 340 340 340 339 339 340 342 342 341 339 335 336 331 329 327 326 324 323 323 326 333 330 329 330 330 328 326 326 327 326 323 324 325 324 323 324 324 323 324 323 323 321 319 317
355 355 354 353 352 351 349 348 346 343 343 341 341 339 338 338 336 335 334 334 336 336 335 336 336 336 336 335 334 336 338 332 326 325 326 327 331 340 341 340 341 341 341 340 340 340 340 339 340 342 341 340 340 339 336 331 327 325 324 323 322 321 322 329 330 329 328 326 325 326 327 324 325 326 324 323 323 324 325 324 323 321 320 319 319
355 354 353 352 351 351 349 347 345 344 343 342 340 338 337 337 335 331 329 331 335 335 334 335 335 335 336 336 335 336 337 331 325 324 325 325 326 332 340 343 342 341 341 341 341 341 341 340 339 340 341 335 334 336 337 337 331 325 323 323 322 321 321 320 321 327 330 327 325 323 325 327 326 325 326 325 325 322 323 321 321 321 321 320 319
355 353 352 351 350 349 349 347 344 343 343 341 339 337 336 334 333 332 331 332 333 335 335 335 336 336 335 336 336 337 338 331 323 322 322 322 324 328 340 342 341 340 340 341 341 340 340 339 339 338 338 338 338 337 335 335 334 333 333 333 332 330 326 320 318 318 322 325 326 326 329 330 326 326 326 327 324 321 320 319 320 319 318 318 321
353 352 351 350 349 348 348 346 344 342 341 339 337 337 335 332 332 334 333 332 334 336 336 337 337 337 337 337 337 337 337 327 322 321 319 319 321 327 339 340 341 341 340 339 340 339 340 339 337 335 335 335 335 334 333 332 331 330 330 330 331 330 331 331 331 330 329 327 326 326 327 327 327 327 327 326 325 323 322 320 319 318 318 320 320
352 351 349 348 347 347 346 345 343 341 339 338 335 334 333 331 330 332 332 333 335 337 338 338 338 337 338 338 336 336 337 325 322 320 318 318 321 335 339 341 340 339 340 339 339 340 338 336 335 334 334 334 331 323 326 330 328 328 329 330 330 330 329 329 323 324 326 328 328 326 325 325 317 323 322 320 320 321 319 319 319 318 317 315 315
350 349 347 347 346 345 344 343 342 340 338 336 334 332 332 331 331 332 331 332 333 335 337 337 339 338 338 339 338 338 339 329 318 317 317 317 322 338 340 339 339 338 337 338 337 335 335 334 334 334 333 333 326 317 318 321 327 327 328 327 327 326 326 329 322 317 316 313 311 312 312 311 311 310 310 310 316 317 318 315 314 317 315 313 315
349 348 347 346 345 344 344 343 340 339 338 335 333 332 333 334 334 335 333 332 332 334 337 338 339 340 339 339 338 338 339 330 316 314 315 315 326 339 340 338 336 335 335 336 335 334 334 329 330 333 332 332 316 316 315 319 325 326 325 324 324 323 325 327 326 326 315 312 311 311 312 312 312 311 311 310 310 311 318 313 316 317 315 315 313
347 346 346 345 345 344 343 342 340 338 337 336 333 331 331 333 335 337 335 335 335 338 338 338 339 340 339 338 335 336 339 329 313 314 314 313 325 337 337 333 333 333 333 333 333 334 334 331 328 328 327 325 309 313 313 317 323 324 325 324 322 323 324 325 324 323 324 324 325 325 325 320 325 326 325 316 314 316 322 320 319 317 315 315 315
347 347 346 344 344 343 342 341 339 338 337 335 336 334 334 334 334 336 336 337 337 337 338 338 338 339 339 339 338 338 338 342 332 312 311 311 317 334 334 332 330 331 332 331 332 333 333 333 327 318 313 311 309 308 310 310 319 323 324 323 322 322 325 323 323 322 322 322 322 322 323 324 324 324 324 323 323 325 324 323 321 318 317 315 315
346 345 345 343 342 341 341 340 338 338 337 335 334 334 335 335 336 336 335 336 337 338 339 340 339 340 340 340 340 340 341 340 328 310 309 310 313 322 332 331 330 330 332 331 330 330 330 330 330 316 309 308 307 305 304 307 311 318 321 322 322 318 315 321 322 318 321 321 321 320 321 321 321 321 320 320 319 320 321 321 320 320 318 316 315
345 344 343 342 341 340 339 340 339 337 335 334 334 334 336 338 337 336 336 337 337 338 340 341 341 340 342 340 340 339 333 331 331 313 310 308 310 316 330 331 331 332 330 330 330 329 330 328 329 319 308 305 303 301 301 304 307 314 318 305 305 307 317 318 320 320 319 318 318 318 318 318 317 317 317 317 317 318 318 318 318 319 320 319 317
343 343 342 341 340 340 340 339 337 335 333 333 334 335 338 337 338 338 338 337 337 339 340 340 339 339 338 338 336 333 333 331 320 320 308 306 306 309 315 324 315 330 329 329 329 328 328 327 325 311 303 298 297 299 300 303 306 312 303 303 304 304 311 319 318 317 317 317 317 316 316 316 316 315 316 315 316 318 317 317 318 318 320 321 321
342 342 341 341 340 339 339 338 337 336 336 335 336 337 337 337 337 338 339 339 339 339 339 339 336 335 335 334 329 332 332 329 319 317 315 307 304 305 306 309 310 326 329 328 328 325 326 327 318 301 297 296 299 301 303 306 313 301 301 304 306 310 317 317 316 316 315 315 315 314 314 315 315 315 315 316 316 317 317 316 317 318 319 320 321
340 340 340 340 340 339 339 338 337 337 337 337 337 336 335 336 336 339 340 339 339 339 338 338 337 337 336 333 329 330 329 330 327 318 313 306 304 301 303 303 305 306 324 326 325 325 311 301 299 300 300 301 301 304 305 305 303 303 303 306 312 317 317 316 315 314 313 313 313 313 313 314 314 315 317 317 317 317 317 316 317 318 320 320 320
339 340 340 340 340 339 337 337 337 338 339 338 338 338 336 335 335 337 337 337 337 337 337 337 336 335 334 332 328 328 328 328 327 322 315 310 309 306 306 306 307 308 314 320 310 307 306 305 302 303 304 307 315 320 320 317 308 308 308 309 315 313 313 314 314 313 312 311 311 311 311 312 313 314 315 315 315 314 315 314 313 315 316 316 316
339 338 338 339 340 339 338 337 336 337 338 338 338 338 338 335 335 334 335 335 336 336 336 334 331 330 329 331 330 329 327 326 326 327 325 322 322 317 315 315 309 310 319 322 317 319 317 316 316 311 311 311 314 313 314 311 314 314 313 312 312 312 313 313 312 311 311 310 309 310 310 311 313 313 312 313 313 314 315 314 312 313 314 314 314
339 338 337 338 338 339 339 337 337 336 337 337 337 337 336 335 335 335 335 336 336 335 334 332 331 331 331 332 332 330 327 325 325 327 325 325 325 324 324 323 322 323 322 321 321 320 320 312 310 315 314 314 314 315 315 315 313 311 311 310 310 310 308 306 306 311 312 311 310 310 311 312 310 310 310 311 311 312 314 313 312 311 313 313 312
338 338 338 337 337 338 337 338 337 338 338 331 322 316 318 329 335 335 334 337 337 335 333 332 332 333 333 333 332 330 330 328 327 318 328 316 322 324 325 324 323 322 313 307 319 320 320 318 317 316 316 315 314 314 313 312 312 310 309 309 308 308 309 309 308 309 310 310 309 309 308 309 309 309 309 309 310 311 314 313 313 311 312 312 311
338 338 338 337 336 336 337 337 337 335 332 327 321 313 302 296 301 318 328 312 306 300 302 331 331 334 332 333 334 330 329 331 307 302 298 298 298 299 299 300 303 311 304 299 312 318 318 316 316 315 315 315 314 314 313 312 311 310 309 306 307 307 306 307 307 308 309 308 308 308 308 308 307 307 308 307 309 310 311 310 311 311 310 310 310
335 335 335 334 334 336 335 335 333 331 330 328 327 323 318 311 295 293 297 300 298 295 297 295 299 310 328 330 317 301 303 299 297 296 294 293 293 294 294 293 294 294 297 310 314 316 316 315 314 314 314 313 313 312 311 309 309 308 307 307 307 306 304 304 306 306 307 307 308 308 307 306 306 307 307 307 308 308 310 311 312 311 311 311 311
335 334 335 335 336 337 335 335 333 331 330 329 327 325 324 321 315 297 293 295 296 293 293 296 300 305 309 316 316 317 301 296 294 294 293 293 293 292 292 291 291 292 294 295 316 315 315 314 314 313 312 311 311 311 309 308 307 307 307 305 304 303 303 304 305 306 306 307 306 305 306 306 306 306 306 306 307 308 308 309 310 310 311 312 312
335 335 336 335 334 336 334 334 333 331 329 327 326 325 324 322 320 315 307 295 294 294 293 294 294 296 297 298 301 306 303 297 294 293 293 293 292 291 291 290 291 291 293 309 316 314 314 313 312 313 312 311 310 308 307 306 305 305 305 304 301 300 302 306 306 307 307 305 305 305 305 305 305 305 305 306 306 306 307 307 308 309 310 310 312
338 336 334 334 335 334 333 333 331 330 329 328 327 326 326 325 324 320 316 315 313 304 296 294 293 294 293 294 295 295 294 294 293 293 293 293 291 291 293 296 290 290 297 315 313 314 313 313 311 311 311 310 308 307 307 306 305 304 304 302 301 302 305 307 307 305 305 304 304 304 305 304 305 304 303 304 305 306 306 306 307 308 308 308 308
336 333 332 333 334 335 332 332 330 329 327 328 327 326 327 327 326 324 322 321 320 319 317 312 301 295 303 298 293 292 292 292 292 292 292 292 292 292 296 310 310 309 310 315 314 313 312 311 311 310 310 308 308 306 305 305 304 302 301 301 301 302 304 305 304 304 304 303 304 304 303 304 305 304 303 303 304 304 305 305 306 307 307 307 307
333 334 334 333 333 334 333 333 332 330 329 328 329 328 327 326 325 325 324 325 321 319 318 317 310 299 293 291 291 291 291 291 291 291 292 292 293 294 313 314 315 314 313 313 313 312 312 311 311 309 308 307 306 305 305 304 302 300 300 300 300 302 303 304 304 305 304 304 303 303 302 304 303 303 303 303 304 304 304 304 305 306 306 306 306
331 331 333 336 336 335 335 335 333 331 327 328 328 328 328 328 326 325 324 322 320 321 318 314 311 309 308 307 298 292 291 292 291 291 291 293 291 305 315 315 313 313 312 312 311 311 310 309 309 308 307 305 305 304 303 302 301 300 299 302 303 303 303 303 303 303 303 302 302 303 304 303 303 304 303 302 302 303 303 304 305 305 306 305 305
330 331 332 335 337 337 336 334 331 324 327 328 330 329 328 326 325 324 322 321 320 318 316 315 313 314 314 313 311 312 305 295 294 295 294 295 302 312 315 314 314 313 312 312 311 310 309 308 308 306 306 305 304 303 301 301 299 298 300 303 304 304 299 302 304 306 305 303 302 302 302 302 303 303 302 302 302 302 303 304 304 305 306 306 306
332 327 325 327 330 335 334 332 329 329 329 328 328 328 326 325 323 322 321 320 319 318 318 318 317 317 316 315 314 312 310 311 312 312 312 312 313 314 314 314 313 313 312 312 311 309 308 307 306 306 305 304 303 302 300 299 298 298 301 302 303 302 303 303 303 304 302 302 301 302 302 302 303 303 304 303 302 302 303 303 304 305 305 306 306
334 333 329 324 330 330 333 333 332 331 329 328 327 327 325 324 323 322 322 322 321 319 318 318 318 319 318 316 315 314 313 314 314 314 314 314 314 314 314 314 312 312 311 311 310 309 308 307 306 305 304 304 303 301 300 299 298 299 300 301 301 301 302 302 302 301 301 301 301 302 302 302 302 303 303 303 302 303 303 303 304 305 306 306 306
333 333 330 326 328 332 333 332 330 330 329 328 327 327 326 324 323 324 324 322 322 320 319 319 319 319 317 314 306 307 316 316 316 316 315 314 314 314 313 313 312 312 311 310 309 309 308 307 306 305 305 304 302 301 299 298 297 298 299 300 300 301 301 302 302 302 301 301 301 301 302 302 301 302 302 302 301 302 304 304 303 304 305 306 306
332 332 330 330 330 331 330 329 329 329 330 329 329 328 326 324 324 324 323 323 321 320 319 318 319 318 310 302 300 299 313 317 317 315 315 315 314 314 313 313 312 312 311 311 310 309 308 307 305 304 303 303 302 300 298 297 296 296 298 299 300 300 300 300 301 302 301 300 301 301 301 301 301 302 302 300 303 303 303 303 304 304 304 306 306
332 331 331 331 330 329 328 329 330 330 329 328 326 326 325 324 324 324 323 323 322 320 318 317 318 317 314 304 302 300 311 314 314 314 314 314 314 314 314 312 312 311 311 310 311 309 308 307 305 304 304 302 302 300 297 296 295 296 297 299 299 300 300 300 300 300 300 300 300 300 301 301 301 301 303 304 304 303 303 303 303 303 304 306 307
331 331 331 330 330 329 328 328 328 328 327 325 325 325 325 325 324 323 322 321 321 320 319 319 318 316 315 307 304 307 311 312 313 313 314 314 313 313 313 312 311 310 310 310 309 309 308 307 305 304 304 301 300 299 296 295 295 295 296 297 298 299 299 299 299 300 299 299 298 299 300 301 300 301 302 303 303 303 303 303 303 303 304 306 306
332 331 328 327 327 325 323 325 325 325 324 324 324 324 324 324 323 323 322 321 320 319 319 319 320 316 314 312 311 310 311 312 312 313 313 313 313 313 312 311 310 310 309 308 309 309 308 306 305 304 302 301 299 298 297 297 296 295 295 295 297 297 298 299 300 300 299 299 298 299 299 300 300 300 301 302 302 303 302 302 302 303 303 305 305
329 328 327 325 323 323 323 325 325 326 325 323 322 322 321 322 321 320 320 320 320 319 320 319 319 317 316 315 314 312 312 313 313 313 314 314 313 313 313 311 310 309 308 308 308 308 307 306 304 303 302 301 300 298 298 296 295 295 295 296 295 296 298 299 299 300 300 300 299 299 300 300 300 301 301 302 302 302 303 303 303 303 304 304 304
328 327 325 324 323 322 323 324 323 323 322 322 322 321 320 320 320 319 319 319 319 319 318 319 318 318 317 315 313 313 313 313 314 314 314 315 314 313 312 311 309 309 308 308 308 307 307 306 304 303 302 301 300 299 298 296 296 295 296 295 295 295 296 298 299 300 300 300 300 299 300 300 300 300 301 302 302 302 303 302 302 303 303 303 303
327 325 324 323 323 322 323 322 321 320 320 320 320 319 319 319 319 319 319 319 319 318 318 318 318 318 317 317 316 316 316 316 315 314 314 314 313 313 312 311 309 309 308 308 307 307 306 305 305 304 303 302 301 300 299 297 297 297 296 296 295 295 296 292 296 300 301 301 300 300 300 300 300 300 301 302 302 302 302 302 302 302 303 302 302
325 323 322 323 322 322 321 321 320 319 319 318 318 318 318 318 318 318 318 318 317 317 317 317 317 317 317 317 317 317 316 316 315 315 314 313 313 312 312 311 310 309 308 307 307 306 306 305 304 304 303 302 301 301 300 299 298 298 297 297 295 290 287 287 290 297 295 297 300 301 301 301 300 301 302 302 302 302 302 302 302 302 302 302 302
323 322 321 321 321 320 321 320 320 319 319 319 318 318 317 318 318 318 317 317 317 317 317 317 317 317 317 316 316 316 315 315 315 315 315 314 313 312 311 310 310 309 309 308 307 306 306 306 305 303 303 302 301 301 300 300 300 298 298 298 288 284 285 285 287 288 293 300 300 300 300 300 301 301 302 302 302 302 301 301 302 301 301 301 301
323 322 321 320 320 320 320 320 319 319 319 319 318 317 317 317 316 317 316 317 316 316 316 316 317 316 317 316 316 316 316 316 315 315 315 314 313 312 311 310 310 309 309 309 308 307 306 305 304 303 303 302 302 301 301 300 300 299 293 287 285 286 286 287 294 291 288 290 299 300 301 300 300 300 301 301 302 301 300 300 301 301 302 301 301
Wind_Speed
15 14 12 12 12 13 13 12 13 11 11 12 11 11 10 10 10 9 8 8 8 8 7 6 6 5 6 6 7 6 6 6 5 4 5 6 6 7 7 6 6 6 6 7 6 5 6 7 8 8 7 7 6 7 7 7 7 8 8 8 9 8 8 9 11 13 11 9 9 9 9 9 9 9 10 9 8 7 8 9 9 9 9 8 9
15 15 12 10 13 13 14 12 12 11 12 12 12 11 9 9 9 8 9 8 8 8 8 6 7 7 6 6 6 6 6 6 6 5 6 6 8 6 6 7 7 7 6 7 7 5 6 7 8 8 7 7 7 7 7 8 8 9 9 9 9 10 9 9 11 12 14 11 11 10 10 9 11 9 9 9 9 9 10 10 9 9 8 8 8
15 12 10 10 13 12 11 12 12 12 13 11 12 11 10 9 9 9 8 7 6 7 8 8 7 6 5 4 4 5 6 6 6 5 6 7 8 7 7 7 8 8 8 8 8 6 7 7 8 7 5 7 7 7 7 8 8 9 10 8 9 10 10 10 9 10 13 12 11 12 11 10 11 12 11 11 10 10 11 10 9 7 7 9 9
14 12 11 12 14 12 12 12 14 15 14 11 13 12 10 9 8 8 7 6 8 6 6 7 6 6 6 5 6 6 6 6 5 6 7 7 8 8 8 7 7 8 8 8 8 7 7 7 7 7 7 7 7 7 7 7 8 8 9 8 8 10 9 9 9 10 11 12 10 11 10 9 9 10 10 11 13 12 10 10 9 9 9 9 9
13 12 13 14 13 13 13 13 15 15 15 12 14 13 12 12 10 11 10 9 11 10 9 8 7 6 6 7 7 7 7 7 6 7 7 7 8 8 7 7 7 8 8 8 7 7 7 7 8 7 6 6 6 7 7 8 7 8 9 7 8 8 7 8 8 8 10 11 11 9 10 11 10 10 10 10 10 10 10 11 10 10 10 10 9
13 12 13 13 13 15 14 14 16 17 15 14 15 15 13 12 11 10 11 10 9 8 9 9 8 7 7 8 9 8 6 7 7 8 8 7 7 7 7 7 8 7 7 6 6 6 7 7 7 6 6 6 7 8 7 9 8 8 9 8 8 8 8 9 8 9 9 9 9 11 10 11 11 10 10 10 11 12 11 11 11 10 11 11 11
12 12 13 13 12 14 15 16 16 16 14 12 11 10 11 11 12 12 10 10 10 8 7 8 7 8 7 7 8 7 7 7 7 8 7 7 7 7 7 8 7 6 6 6 7 7 7 7 7 7 7 7 8 8 8 8 7 9 9 8 8 8 8 8 8 8 8 9 9 9 10 10 11 11 10 11 12 11 13 13 12 10 10 11 13
12 12 13 13 13 14 14 13 13 12 9 9 9 11 10 10 10 9 9 11 8 7 7 7 6 7 7 8 7 6 7 7 8 7 7 6 6 7 7 7 7 6 6 7 7 8 8 8 8 8 8 8 8 8 7 7 7 8 7 7 8 8 8 8 8 9 9 9 9 9 8 10 11 9 9 10 12 11 10 11 13 13 13 12 13
13 13 12 12 13 13 10 9 9 8 11 13 12 8 8 10 11 10 7 6 6 8 7 6 8 7 6 6 6 6 7 7 6 6 6 7 7 7 7 7 7 7 7 8 8 8 8 8 8 8 8 8 8 7 7 6 6 8 7 7 8 8 8 8 9 9 10 11 10 9 10 12 11 11 11 10 11 12 12 13 13 12 11 12 13
12 12 13 13 11 10 10 9 10 11 12 13 13 14 11 10 9 9 13 11 9 6 7 6 6 5 5 6 6 6 7 6 8 12 9 7 7 7 6 7 7 7 7 7 8 8 9 8 8 10 9 9 8 9 10 11 10 9 9 8 8 8 8 8 9 9 10 11 12 11 12 13 12 12 12 12 11 12 13 13 14 14 15 15 14
11 11 13 12 11 10 11 12 11 13 14 12 10 10 15 13 12 12 11 10 8 6 7 6 6 7 8 8 8 7 7 6 11 12 13 14 9 7 8 8 8 7 7 7 8 8 8 8 7 8 8 8 9 11 11 11 12 12 13 13 12 10 9 10 10 10 10 11 11 11 12 13 14 13 13 13 13 13 13 13 14 14 15 16 16
13 12 11 10 11 12 12 12 12 13 13 14 13 10 10 9 12 14 10 9 7 7 7 8 9 8 7 8 8 7 7 9 12 13 14 15 13 9 8 7 6 6 7 7 7 7 8 7 6 5 5 5 4 5 8 11 12 12 12 13 14 15 13 11 10 10 10 10 12 11 12 12 11 11 14 14 13 14 14 14 13 14 16 16 15
11 11 11 11 12 11 11 12 12 12 13 13 12 8 8 8 6 11 12 10 6 7 8 8 9 8 7 8 9 8 9 9 13 14 15 15 15 11 7 6 6 6 6 7 7 7 6 6 6 5 4 4 5 6 6 7 8 10 12 13 13 13 12 12 14 13 10 9 10 11 12 11 11 11 13 14 14 15 14 14 14 15 15 16 17
11 11 10 11 11 10 10 11 11 12 12 11 10 12 11 11 8 5 8 8 8 8 10 11 9 8 8 7 7 8 10 10 13 15 15 14 11 8 7 6 6 7 7 7 6 7 7 6 5 5 5 5 4 5 6 6 6 8 9 9 9 9 10 14 14 14 12 10 10 11 10 10 11 12 14 14 14 14 14 14 15 15 16 17 18
10 9 10 9 9 10 10 11 11 11 13 14 13 15 13 11 11 9 9 10 10 11 11 11 9 9 9 8 9 9 9 11 13 14 13 10 9 8 6 6 6 6 6 6 7 7 5 4 4 5 5 5 4 3 4 6 8 8 9 10 9 9 8 7 6 5 6 8 9 10 10 12 13 14 13 13 13 13 12 14 15 15 16 17 17
9 8 8 9 10 10 12 12 14 11 12 11 11 10 11 12 11 10 11 11 10 9 9 9 9 9 9 9 9 10 10 12 12 12 10 9 9 6 6 6 6 6 5 5 5 4 4 3 4 4 4 5 2 4 2 5 7 8 9 9 9 8 8 2 5 2 7 7 7 9 10 12 12 12 13 12 12 12 11 11 12 13 14 14 16
8 8 8 9 10 11 12 14 13 12 12 12 13 12 12 11 11 11 12 12 11 11 10 10 9 9 9 9 10 10 9 9 12 11 11 11 8 6 7 6 5 5 5 4 3 3 3 3 4 3 2 4 5 6 2 3 7 8 8 8 8 9 9 5 7 8 8 10 12 13 15 16 17 17 17 16 12 11 11 12 14 13 13 15 16
7 8 9 9 11 11 12 12 12 12 12 14 13 11 10 9 10 11 12 12 12 12 10 9 9 9 9 10 10 10 10 9 12 11 11 12 10 7 6 5 5 4 4 3 3 3 3 5 4 3 3 4 8 1 1 5 6 6 8 9 10 10 9 6 5 4 12 14 14 15 15 15 15 16 17 17 16 10 9 12 14 12 13 14 16
7 8 8 9 10 11 11 12 12 12 12 12 12 13 12 11 10 9 11 11 11 9 9 8 8 7 8 10 9 11 10 6 12 11 12 12 10 7 5 4 5 4 4 4 3 3 3 5 6 3 3 2 3 3 4 3 4 5 7 7 8 9 8 6 7 8 9 10 7 7 7 8 8 9 10 12 12 11 11 13 13 12 14 16 16
6 7 8 9 10 10 10 12 11 12 11 10 9 10 10 9 10 9 10 11 10 9 8 7 8 7 7 8 8 9 9 4 8 10 11 11 13 7 3 2 3 4 5 5 4 3 4 4 6 7 4 4 4 4 4 3 4 4 5 6 7 8 6 6 7 8 9 8 8 7 8 9 9 9 9 10 10 10 10 10 11 11 13 14 15
7 8 8 9 10 11 10 11 12 10 9 8 7 8 8 9 9 10 10 10 10 8 8 6 7 7 6 7 7 8 5 5 5 9 10 11 10 4 5 2 5 6 4 4 5 5 3 2 1 8 7 5 3 2 3 5 4 4 5 7 5 4 5 7 8 6 6 7 7 6 7 7 8 8 9 9 9 9 9 10 10 11 12 13 13
7 8 8 9 10 10 10 10 11 9 8 8 8 8 7 7 8 10 9 9 9 8 6 5 6 7 6 6 6 4 8 11 9 7 7 7 7 6 5 6 6 4 5 6 5 4 2 1 2 4 4 3 2 3 4 5 5 4 3 1 3 5 5 6 6 5 5 5 6 6 7 7 8 8 9 9 10 10 10 10 11 12 12 13 14
8 8 9 9 10 10 11 13 13 8 9 10 9 8 6 7 8 9 9 9 8 6 6 6 6 7 8 5 4 7 5 6 6 6 7 7 8 8 8 7 4 5 6 5 3 2 2 2 1 7 5 4 3 1 1 5 5 4 1 3 4 7 8 4 4 4 5 5 6 6 7 7 8 8 9 10 10 11 11 11 13 13 14 14 15
8 8 9 9 10 10 11 12 13 10 10 9 9 9 10 10 10 10 9 8 6 6 5 6 7 8 7 5 7 6 4 3 6 5 7 8 8 8 8 6 9 5 4 3 2 1 1 1 4 6 5 6 6 6 5 4 2 3 3 6 8 8 3 3 3 4 5 5 6 6 7 7 8 8 9 10 11 12 12 13 13 14 15 15 16
8 8 8 9 9 10 11 11 12 11 11 11 10 10 12 11 10 9 7 7 7 5 5 5 6 7 7 6 7 6 6 5 5 5 6 8 8 7 7 8 6 3 4 2 1 1 6 6 5 6 7 7 7 7 5 3 4 6 6 7 7 3 2 3 3 4 5 5 6 7 7 7 8 9 9 11 12 12 12 11 11 13 14 15 15
8 8 8 9 9 10 11 12 12 12 12 11 11 9 11 12 11 9 7 7 6 5 5 5 6 6 5 4 6 6 7 6 6 5 6 7 5 7 7 7 6 3 4 3 6 4 2 5 7 7 6 5 5 5 3 3 6 6 5 4 2 1 2 2 3 4 5 6 6 7 8 8 8 9 11 11 11 11 10 11 12 13 13 13 15
8 8 8 8 8 9 10 10 11 12 13 11 10 10 10 10 10 9 9 7 5 5 5 5 4 4 5 5 6 7 7 6 6 6 7 7 6 6 5 5 6 6 4 3 4 3 5 5 3 2 3 2 0 2 4 6 6 4 2 1 1 1 1 2 3 4 5 6 7 7 8 8 9 10 10 10 10 10 9 10 11 13 14 13 14
7 8 9 8 8 9 9 12 12 10 10 10 10 9 9 9 9 9 7 5 5 5 5 6 6 6 7 6 6 6 7 6 7 8 8 7 6 5 6 4 4 2 3 2 1 2 2 5 5 4 5 5 5 5 4 3 2 1 1 1 1 1 2 3 4 4 5 5 7 7 8 8 8 9 10 10 10 10 9 9 11 13 13 13 13
7 8 8 8 8 8 9 10 10 9 6 4 6 6 4 1 1 2 2 1 4 5 6 6 6 6 6 5 5 5 5 7 8 8 6 5 5 6 6 5 4 3 3 3 2 3 3 4 4 4 4 4 4 4 3 2 0 1 1 1 2 2 2 3 3 4 4 5 6 7 8 8 8 9 9 10 10 10 9 9 10 12 12 11 12
7 7 7 8 8 9 8 8 7 5 5 4 4 5 10 9 6 4 1 6 9 9 6 2 2 3 5 3 0 3 4 1 12 12 10 9 7 8 8 9 6 4 6 3 3 3 4 4 4 4 3 3 3 2 2 2 2 2 1 1 2 2 3 3 3 4 4 6 6 7 7 8 8 9 9 10 11 10 9 9 9 10 11 12 13
6 6 7 7 8 8 8 7 6 5 5 5 4 4 4 6 13 12 9 7 6 7 4 5 7 8 3 3 5 11 10 11 11 11 11 9 9 9 9 8 8 7 7 5 4 4 3 4 3 3 3 2 2 2 2 2 2 3 3 2 2 2 3 3 3 4 5 6 6 6 7 7 8 8 9 10 11 11 10 9 8 9 11 11 12
6 6 7 6 6 7 7 6 7 7 5 5 5 4 4 4 5 11 12 9 9 7 6 6 3 3 4 5 6 5 7 8 11 10 10 10 9 9 9 8 6 5 5 4 3 2 2 3 3 2 1 1 1 1 2 2 2 2 3 3 3 2 3 3 4 5 5 5 6 7 7 7 8 8 9 10 10 10 10 10 9 9 12 12 12
7 6 6 6 6 6 5 6 6 6 6 6 5 5 5 4 5 5 6 8 9 10 10 9 9 9 10 9 6 7 10 10 10 10 9 9 9 9 9 7 5 5 4 4 3 2 2 2 2 1 1 1 1 1 1 2 2 3 3 3 4 3 3 4 5 5 5 5 6 6 7 7 8 9 9 9 9 10 10 10 10 9 9 11 13
3 3 5 6 6 5 6 6 5 5 5 5 5 6 6 6 6 7 8 6 6 8 10 11 10 11 11 10 12 12 11 10 9 9 9 9 10 10 9 5 5 6 5 3 2 2 2 1 1 1 1 1 1 1 1 1 2 3 3 2 3 3 3 4 4 4 5 5 6 6 7 7 7 8 9 10 9 9 9 10 10 10 10 10 11
2 3 4 4 3 4 5 5 5 5 6 6 6 6 6 6 6 8 7 8 7 7 6 5 8 10 7 7 8 9 9 8 8 8 9 9 9 10 10 6 4 4 4 3 2 2 1 1 1 1 1 1 1 1 1 2 2 2 2 2 3 3 3 3 4 5 5 6 6 6 7 8 8 8 9 10 10 10 10 10 10 10 10 10 10
2 1 2 3 3 3 4 5 5 6 6 6 6 5 6 7 7 6 6 6 7 7 6 5 5 5 9 9 8 8 7 6 6 8 10 10 10 10 5 4 3 3 2 2 2 1 1 1 1 1 1 1 1 1 1 2 2 2 2 3 2 3 3 3 4 5 5 6 6 6 7 7 7 8 9 9 10 10 10 11 11 11 10 10 10
2 2 4 4 5 5 5 5 5 5 6 6 6 6 6 6 6 6 6 6 6 5 6 7 6 5 5 4 7 8 8 8 8 8 7 8 7 6 3 2 1 1 2 2 2 2 2 2 2 1 1 1 1 1 1 2 1 2 2 2 2 3 2 3 4 5 5 6 6 6 7 7 8 8 9 10 10 9 10 10 10 11 10 10 11
4 4 3 3 4 4 4 5 6 9 7 6 6 6 6 6 5 5 5 5 6 6 6 6 6 6 7 6 6 4 6 8 11 9 6 3 4 5 3 2 1 1 1 1 2 2 2 2 2 2 2 1 1 1 1 1 1 2 1 1 2 1 1 4 3 3 4 5 6 6 6 7 7 8 8 9 9 10 10 11 10 10 10 10 9
3 3 2 2 4 4 4 5 7 7 6 6 6 6 6 6 5 5 5 5 5 5 6 6 6 6 6 7 7 6 7 5 5 5 5 5 5 3 2 2 2 2 1 1 2 3 3 3 2 2 2 1 0 1 1 2 1 2 2 2 2 1 1 3 3 4 4 5 6 6 6 6 7 7 8 8 9 10 10 11 11 10 10 10 9
0 2 1 6 4 5 4 4 4 5 5 5 5 5 5 5 5 5 5 5 6 6 6 6 6 6 6 8 7 7 6 5 5 5 5 5 4 4 3 3 2 2 2 3 3 4 3 3 3 3 2 2 1 1 1 2 2 1 2 2 2 2 2 2 3 4 5 5 6 6 6 6 7 7 7 7 8 9 10 10 10 10 10 10 10
3 4 4 4 4 6 5 5 4 4 5 4 5 5 5 5 5 4 4 5 5 6 5 5 5 6 7 8 9 8 5 5 5 4 4 4 4 4 3 3 3 2 2 3 3 4 4 3 3 3 2 2 1 1 1 2 2 2 2 2 2 2 2 2 3 4 5 6 6 6 6 6 7 7 7 8 9 9 9 9 10 10 10 9 9
5 5 5 5 5 5 5 5 5 5 4 5 5 5 5 5 5 4 4 4 4 4 3 4 4 5 6 9 10 7 3 2 2 3 3 3 4 3 3 3 2 2 2 2 3 4 4 3 3 3 2 2 1 1 2 2 2 2 2 2 1 2 2 2 3 4 5 5 6 6 6 6 7 7 8 8 8 8 9 9 10 10 10 10 9
5 5 5 5 5 5 5 5 4 4 4 5 5 5 5 5 4 4 4 3 3 3 3 4 4 5 6 8 7 6 4 3 2 3 4 4 4 3 3 3 3 3 3 3 3 4 4 4 3 3 2 1 1 1 2 2 1 2 2 2 2 2 2 3 3 4 4 5 6 6 7 7 7 7 7 7 8 8 8 9 10 10 10 9 9
6 6 6 5 5 5 4 5 4 4 5 6 6 5 5 4 4 4 4 4 4 4 4 4 5 5 6 6 6 5 5 4 4 4 3 3 3 3 3 3 3 3 3 3 3 3 4 4 3 2 2 1 1 0 1 1 1 1 2 2 2 2 2 2 3 4 4 5 6 6 6 6 7 6 7 7 8 9 8 9 9 10 10 9 9
5 5 6 5 4 4 4 4 5 6 7 6 5 5 4 3 4 4 3 3 4 4 4 5 5 6 6 6 6 6 6 5 4 3 3 4 4 4 4 4 4 4 4 4 3 4 4 4 3 3 3 2 2 1 1 0 0 1 1 2 2 2 2 2 3 4 4 6 6 6 6 6 6 6 7 7 8 8 8 9 9 10 10 10 9
6 5 5 5 5 5 4 4 5 5 4 4 4 4 4 3 3 3 3 3 4 4 5 5 5 5 6 6 6 6 6 5 5 5 5 5 4 4 4 4 4 4 4 4 4 4 4 4 4 3 3 2 2 2 1 1 1 1 1 2 2 2 2 3 3 4 5 5 6 6 6 6 6 6 7 8 7 7 8 9 8 9 9 9 9
5 5 5 5 5 5 5 5 5 5 5 4 4 4 3 3 3 3 4 3 3 4 4 4 5 6 6 6 7 7 7 7 7 6 5 5 5 4 4 5 5 5 5 4 4 4 5 5 4 4 3 3 2 2 1 1 1 1 2 2 2 2 3 3 3 4 5 5 5 6 6 6 6 6 6 7 7 7 8 8 8 9 9 9 9
5 5 5 5 5 5 5 5 6 5 5 5 4 4 3 3 3 3 3 4 4 4 4 4 5 5 6 7 8 8 8 7 6 6 5 5 5 5 5 6 6 6 5 5 5 5 5 5 5 4 4 3 3 2 2 2 1 1 2 2 2 2 4 5 5 5 5 5 5 6 6 6 6 6 6 7 7 7 7 7 8 8 8 8 9
5 5 5 5 5 6 6 6 6 5 5 5 4 4 4 3 3 3 3 3 3 4 4 4 5 5 6 7 7 8 7 7 6 6 6 5 5 5 6 6 6 6 6 6 6 6 6 5 5 5 4 4 4 3 3 2 2 2 2 2 1 3 3 5 6 5 7 6 6 5 5 5 6 6 6 6 6 6 6 7 7 7 7 8 8
6 6 6 6 6 6 5 5 5 5 5 4 4 4 3 3 3 3 3 3 3 4 4 4 5 5 6 7 7 7 7 7 7 7 6 6 6 6 6 7 7 6 6 6 6 6 6 6 6 6 5 4 4 4 3 3 3 2 2 1 5 1 4 5 8 8 7 5 6 5 5 5 6 6 5 5 5 6 7 7 7 7 7 7 8
6 6 6 6 6 5 5 5 5 5 4 4 3 3 2 2 2 2 3 4 5 6 6 6 6 6 6 6 6 7 7 7 7 6 6 6 6 7 7 7 7 7 7 6 6 6 6 6 6 6 6 5 5 5 5 4 4 2 4 5 1 4 4 5 4 2 5 7 6 5 4 5 5 5 5 5 5 5 6 6 6 6 6 6 7
Wind_Direction
202 208 201 197 184 181 188 187 185 179 176 177 179 182 179 180 180 177 164 174 169 170 163 166 167 186 188 199 211 211 214 215 205 207 217 234 239 247 252 239 239 246 249 253 240 236 239 245 253 257 254 255 257 262 262 258 250 256 259 257 258 253 238 239 259 272 278 280 286 288 284 275 272 269 275 276 275 272 260 268 272 274 274 273 276
205 207 198 186 186 188 190 186 180 178 179 179 184 181 174 178 174 163 173 171 166 162 159 152 181 187 185 193 204 212 211 213 210 204 217 229 239 237 242 240 240 246 245 248 248 241 239 248 257 255 246 248 257 262 266 265 260 261 259 259 261 261 249 247 258 270 281 287 286 287 284 278 282 270 271 275 278 279 279 280 278 273 272 271 271
205 198 184 177 187 188 182 180 179 179 181 180 185 175 175 171 165 170 170 162 165 159 171 175 172 173 177 181 203 216 218 217 208 204 215 225 234 236 237 241 243 246 244 248 251 249 246 247 253 256 250 249 251 261 265 265 266 264 262 257 258 260 258 244 253 261 273 280 286 291 292 293 290 293 289 284 278 279 284 278 276 273 268 267 269
204 191 183 187 188 183 183 184 183 186 188 184 182 177 171 159 160 169 159 144 163 186 185 158 164 170 178 170 201 219 220 220 216 213 219 224 230 236 238 238 241 243 247 251 251 246 249 253 254 253 248 254 258 262 265 266 264 258 256 251 251 257 260 260 237 261 274 283 284 287 294 293 288 284 285 288 290 289 283 280 273 269 271 270 266
204 193 188 188 185 185 187 184 185 189 190 183 179 164 163 163 168 168 161 176 185 177 174 157 185 181 176 180 201 215 220 217 219 223 222 224 229 234 237 238 239 239 239 240 241 246 248 248 254 253 248 256 264 263 263 259 256 259 260 251 248 249 252 250 249 242 263 274 283 283 288 286 287 289 286 287 292 288 287 286 285 285 282 281 281
203 192 190 188 185 190 190 188 191 191 185 179 174 174 168 163 165 164 173 182 192 179 171 166 163 181 200 194 199 210 207 211 218 225 227 225 225 230 236 237 237 235 234 235 239 239 244 249 252 252 249 252 263 267 265 263 260 258 255 252 250 251 249 251 248 250 253 264 275 286 283 287 295 295 294 293 298 300 298 295 294 291 294 298 297
197 193 191 193 189 194 193 192 193 192 178 167 163 167 164 165 168 171 177 184 180 177 182 165 164 173 200 207 209 198 202 214 220 222 226 230 229 229 233 232 232 232 235 241 247 244 244 246 250 248 248 247 252 258 263 262 262 263 261 258 256 253 254 255 255 256 259 267 269 271 280 279 287 296 300 300 295 294 298 302 301 300 293 296 301
191 192 192 196 195 199 199 193 190 183 155 127 166 176 166 166 169 166 174 183 175 167 188 188 169 184 196 206 205 200 210 222 225 224 224 227 227 229 228 229 230 228 235 242 243 244 242 245 249 248 244 244 244 252 255 261 265 269 269 266 264 263 266 270 268 267 268 268 270 281 277 286 288 284 292 297 299 298 299 302 301 302 300 297 295
195 195 193 196 201 199 190 180 178 147 145 172 180 146 161 176 172 164 159 170 171 185 195 203 199 195 191 197 211 215 216 223 219 215 217 225 225 227 224 224 226 230 236 240 237 236 239 242 245 245 241 235 238 247 260 272 274 274 275 277 278 276 275 274 273 272 272 272 275 271 275 283 286 292 298 299 301 303 303 300 296 294 293 293 293
194 194 196 202 198 187 181 174 169 159 164 185 180 164 164 188 168 159 170 176 175 180 195 207 212 205 192 187 204 220 224 224 229 226 218 226 220 220 220 221 223 230 235 242 243 237 237 239 242 241 242 242 242 240 243 249 245 254 268 272 274 274 272 275 273 272 272 277 278 277 280 286 288 293 299 298 297 295 297 299 297 300 299 295 293
194 193 199 198 190 183 183 185 173 174 179 177 164 172 173 165 176 174 167 162 165 168 185 190 199 209 198 196 203 214 225 228 225 221 218 221 226 225 221 220 221 227 232 238 247 249 247 239 245 239 234 233 233 228 239 243 243 240 242 247 254 261 273 270 269 268 270 275 281 277 277 283 285 293 296 300 300 302 302 301 301 300 299 299 297
196 197 197 188 189 189 189 181 175 177 176 177 177 167 180 180 181 167 148 145 164 174 196 203 212 205 204 203 210 218 227 227 221 214 213 214 216 226 228 228 225 228 235 240 246 254 257 258 256 256 257 260 280 258 229 230 236 239 240 244 248 249 246 257 267 270 265 274 279 283 287 286 292 293 296 303 306 306 304 302 299 297 295 294 293
193 194 192 189 193 192 184 180 175 177 174 177 173 165 164 168 192 164 166 178 168 192 207 209 214 207 206 208 217 225 237 217 210 212 212 212 215 223 239 237 239 243 245 246 252 253 255 256 260 261 267 197 237 252 263 264 232 225 240 248 251 250 249 242 241 254 278 284 278 277 276 287 290 291 300 304 306 302 303 299 298 294 293 291 289
193 193 186 189 190 185 180 177 173 177 174 171 170 177 172 178 194 157 147 172 196 211 213 213 208 207 209 213 227 240 242 220 206 211 213 213 207 204 240 241 244 251 253 255 254 255 253 249 251 264 276 273 269 258 269 271 288 287 284 283 286 269 220 213 221 233 242 256 266 276 280 282 285 292 300 301 301 300 299 296 295 292 290 284 286
193 188 183 181 177 177 178 175 174 173 171 174 171 181 176 179 169 160 177 194 201 209 215 211 209 212 214 216 225 235 239 220 207 211 215 208 185 197 237 236 239 243 242 246 251 252 247 235 247 263 272 273 274 329 305 296 293 291 284 280 281 288 295 289 266 251 233 236 248 261 274 284 292 298 301 298 295 295 292 291 289 287 285 286 283
189 179 173 172 176 177 181 183 193 172 173 166 163 163 174 179 172 179 194 206 212 217 219 221 217 216 218 222 231 237 239 209 207 210 207 198 178 206 223 225 229 233 238 239 238 235 229 232 238 243 260 269 329 65 327 297 286 280 275 279 289 296 299 345 78 334 284 289 288 288 292 297 302 292 288 291 295 294 293 288 286 283 282 282 283
186 172 172 172 178 176 181 190 185 173 178 172 172 171 173 175 180 185 198 208 213 215 221 218 218 221 222 222 228 236 243 202 193 192 193 192 181 214 214 218 218 221 236 232 220 226 218 211 223 245 263 277 77 82 55 292 275 276 283 288 294 299 297 296 167 193 233 247 252 258 263 268 271 273 272 266 266 280 290 288 282 285 284 286 288
174 169 175 173 177 174 177 176 172 179 179 181 176 169 173 183 186 189 200 209 215 217 216 218 220 223 223 229 227 232 240 194 175 180 190 184 196 208 205 199 200 213 229 221 211 219 210 201 223 242 268 284 86 73 204 255 265 283 292 294 295 295 294 291 287 234 201 223 236 244 250 257 262 264 264 263 262 253 269 275 287 293 285 283 285
169 172 172 168 173 171 177 175 178 183 184 179 172 171 181 190 194 191 203 213 219 219 218 223 226 226 229 237 229 234 244 188 166 179 187 185 198 209 196 190 212 217 228 229 212 216 197 190 198 231 278 54 93 192 202 248 275 285 288 292 289 289 295 306 293 301 310 313 301 294 282 262 265 282 289 282 270 259 264 274 282 282 285 286 288
163 162 161 163 169 171 173 173 180 186 182 173 159 170 181 189 196 200 211 220 220 221 222 227 235 238 239 236 236 232 236 201 167 185 187 189 197 201 150 131 250 248 243 242 232 220 212 208 176 180 180 197 202 204 187 204 271 276 271 271 281 277 299 293 294 305 306 308 308 303 298 301 296 294 292 291 285 282 275 277 284 284 282 283 283
151 154 157 163 169 171 172 179 180 182 176 157 152 181 189 195 198 210 214 216 219 224 227 233 244 247 237 235 235 231 214 146 146 184 189 199 204 184 105 200 235 236 230 242 238 236 222 225 243 147 179 185 197 188 222 205 225 260 250 255 276 333 310 285 303 293 294 307 305 306 304 303 303 300 297 295 295 296 295 288 284 288 287 283 282
153 158 169 169 167 171 173 174 181 177 156 154 174 195 197 201 207 211 212 214 216 226 230 232 242 247 234 224 235 196 121 157 191 173 173 180 172 176 126 223 226 210 229 237 235 230 232 221 259 103 73 27 328 267 234 217 185 234 234 32 329 284 270 284 295 308 312 309 311 308 308 305 305 304 299 297 299 301 302 298 291 288 288 281 276
157 166 175 178 179 178 183 182 186 176 160 172 185 196 192 200 205 205 205 210 214 212 222 228 236 245 248 226 155 136 181 186 116 135 165 174 174 189 191 206 146 225 231 235 237 243 209 248 105 61 17 26 19 26 140 154 184 213 116 277 249 245 248 283 315 313 313 310 308 304 301 299 299 300 299 301 303 305 304 302 298 293 290 287 279
166 172 176 179 178 182 182 183 188 179 168 175 189 192 200 203 204 200 198 200 199 210 213 228 239 246 241 184 150 162 157 134 136 158 174 174 172 175 171 170 180 223 227 241 229 233 271 18 44 43 76 86 86 96 116 181 144 136 236 232 235 241 277 301 315 318 307 301 298 297 298 300 298 297 300 304 302 302 299 298 295 293 295 294 290
170 175 179 179 180 180 181 184 188 183 183 186 192 195 204 200 199 194 188 198 205 208 208 210 221 234 232 197 168 163 167 165 164 163 176 174 175 175 178 175 195 203 221 198 245 44 52 49 92 113 113 123 133 140 138 130 166 199 209 222 231 274 320 326 324 319 305 300 298 299 296 297 298 295 297 297 295 294 293 294 296 295 299 296 293
173 180 178 181 182 180 182 188 192 191 189 195 198 196 200 201 200 194 196 204 208 208 211 213 220 227 222 166 147 160 164 172 172 163 174 170 178 185 179 170 172 226 311 56 51 54 27 105 119 134 159 177 188 207 225 166 186 197 195 235 284 340 335 337 317 305 303 300 299 296 298 301 300 301 298 292 291 294 300 303 309 307 310 309 306
169 175 177 177 180 185 186 188 192 197 201 203 205 206 203 202 205 205 207 203 186 203 213 207 205 212 219 188 183 177 169 175 189 183 179 179 180 161 165 160 164 184 200 158 175 179 156 175 155 151 77 131 236 106 181 180 199 201 227 354 12 348 340 324 324 302 295 296 294 295 297 299 299 298 297 298 295 297 301 300 307 308 311 309 306
170 171 175 175 181 188 190 190 194 199 203 205 205 204 203 208 208 208 198 178 190 199 212 209 213 217 225 211 188 166 178 187 199 196 188 187 180 179 188 186 183 189 209 164 174 187 168 113 136 168 164 188 190 209 201 206 211 220 22 4 8 350 330 290 267 267 272 282 289 288 291 296 300 302 303 301 301 303 305 305 314 311 311 311 307
169 166 174 181 182 186 195 193 197 201 185 100 53 38 23 16 251 165 60 225 225 217 208 215 219 223 222 213 193 184 179 194 203 193 170 158 166 180 189 191 179 175 69 69 168 184 208 210 233 230 223 223 229 232 226 215 76 60 29 346 341 320 298 305 304 298 297 295 293 299 300 307 306 307 305 305 305 307 306 306 313 314 310 307 302
167 168 175 184 185 188 195 191 185 156 142 124 119 88 66 64 28 354 93 28 5 2 351 265 293 232 216 199 247 234 244 161 107 123 120 115 90 72 69 71 60 70 114 166 254 217 208 229 226 225 235 248 260 272 300 342 349 335 352 11 282 303 307 296 291 305 308 295 297 301 310 311 310 312 311 309 310 308 308 300 303 315 312 310 309
172 179 179 188 188 186 186 178 140 136 135 143 153 146 146 85 59 45 31 26 19 20 17 326 323 334 297 196 81 51 65 100 121 130 128 129 124 118 114 112 106 108 147 162 197 217 214 230 230 227 239 264 295 333 357 329 336 323 319 310 285 290 289 299 320 316 304 304 305 311 313 314 311 312 310 310 311 310 310 308 302 316 320 315 311
179 182 182 176 156 179 182 167 150 145 145 151 151 158 145 131 97 48 37 40 52 58 67 72 80 105 90 108 128 91 72 106 130 135 132 132 132 127 122 116 123 152 181 293 252 223 237 250 246 254 283 295 9 355 332 329 322 310 309 313 320 329 319 321 332 307 308 311 319 318 315 315 313 312 309 307 308 305 311 311 314 317 328 325 318
191 179 168 155 159 161 160 154 153 150 151 150 152 156 154 146 128 115 56 54 69 70 63 72 91 101 100 84 75 123 139 148 141 135 136 135 129 117 107 113 137 165 183 222 228 219 220 237 255 238 254 285 334 325 323 312 311 303 311 316 318 331 329 328 300 293 306 320 313 311 316 314 314 312 307 311 311 314 313 312 313 312 317 328 329
188 165 159 156 153 157 165 160 158 153 146 157 162 167 173 171 161 148 142 140 108 78 65 57 64 75 70 94 114 120 130 135 132 130 133 129 124 126 125 120 149 193 250 267 233 218 220 223 233 225 265 296 289 286 277 291 300 306 304 304 310 318 317 305 296 315 321 320 314 319 317 317 319 317 319 317 317 315 315 318 318 320 321 323 326
129 95 114 139 158 153 152 151 156 155 160 170 174 181 177 175 162 165 167 157 149 144 142 98 44 34 84 93 89 105 111 118 128 133 131 132 136 146 137 138 165 194 209 213 218 226 222 230 231 185 235 243 244 296 293 306 298 305 306 310 309 315 315 315 325 335 329 323 315 322 325 315 316 319 316 317 320 321 324 323 324 324 323 322 327
118 147 163 185 193 182 165 165 162 166 171 172 171 173 170 171 174 171 157 142 139 142 130 109 108 82 81 81 91 94 95 105 118 132 140 146 160 169 185 194 187 193 194 173 196 187 228 238 226 201 212 210 228 257 300 296 307 306 312 307 309 317 316 327 337 335 331 316 319 319 317 315 322 320 320 319 319 322 325 326 323 324 322 322 323
300 245 220 207 198 191 180 161 161 163 159 158 160 164 167 167 164 159 149 141 142 139 125 128 126 123 125 127 109 88 85 90 94 106 132 154 182 217 240 199 206 171 205 181 178 190 213 207 217 197 189 205 222 278 294 294 298 286 273 293 322 301 331 344 340 332 321 321 321 321 319 320 322 322 323 321 322 325 327 326 322 322 323 323 321
268 267 255 222 195 171 161 159 147 143 157 160 162 162 159 155 153 142 132 132 138 136 136 151 158 155 161 152 170 163 116 108 108 99 102 115 209 219 217 219 220 222 202 195 191 208 215 205 201 206 184 197 200 285 291 290 287 288 290 267 253 304 328 288 265 293 308 310 317 320 317 320 322 323 323 321 323 326 328 326 326 326 325 326 331
245 210 214 172 187 188 166 155 153 162 153 155 156 155 148 146 140 132 134 142 152 155 161 162 172 171 160 147 156 130 135 150 166 161 169 182 197 211 215 207 212 214 215 200 194 206 210 202 189 187 190 201 197 289 294 290 286 285 301 279 281 289 266 314 332 321 316 324 319 320 318 321 321 322 320 321 326 329 327 327 326 328 327 329 329
266 6 179 175 169 144 149 146 141 138 138 145 147 143 135 132 135 139 153 159 168 168 169 174 178 168 153 160 157 161 180 174 182 179 181 187 193 196 203 206 207 210 207 203 203 204 206 198 177 188 176 210 231 281 297 288 272 262 252 272 300 300 313 313 324 320 320 323 318 318 320 320 321 319 321 324 329 325 324 327 327 326 327 325 327
157 187 185 170 133 130 122 120 117 126 140 142 136 137 130 132 138 148 159 160 159 163 169 177 177 171 169 166 156 170 181 183 181 182 184 192 194 195 199 205 203 205 216 207 204 204 211 194 181 192 196 208 222 258 279 291 280 262 263 268 271 295 304 310 312 317 318 313 316 319 321 320 322 322 324 330 322 321 326 328 329 332 330 332 332
164 162 150 138 138 122 122 127 127 132 128 128 129 129 134 139 145 149 143 148 149 151 162 186 178 174 154 153 163 171 200 180 172 175 182 190 196 196 195 199 195 207 232 219 203 203 202 193 188 197 209 216 236 273 278 269 272 271 265 269 290 299 309 314 322 322 315 315 316 320 321 323 319 313 316 318 326 332 330 335 334 331 335 333 338
147 135 124 122 128 131 132 129 134 134 121 117 123 130 131 131 133 123 136 140 146 160 187 193 184 172 152 152 135 137 211 223 221 206 195 186 185 181 190 198 197 192 211 220 212 204 198 194 194 201 207 207 253 289 289 282 282 281 275 271 286 295 307 316 315 313 315 316 315 319 317 320 323 324 327 328 331 330 333 333 335 337 337 337 339
137 130 128 128 125 124 125 128 117 105 107 114 118 120 123 120 123 130 148 161 181 186 207 207 190 173 156 134 142 172 201 216 218 216 198 187 186 194 199 193 192 189 195 202 205 198 194 190 192 187 164 177 156 209 282 310 289 288 302 283 272 300 303 313 316 318 320 318 316 313 319 323 324 322 327 331 331 334 333 339 337 340 335 338 340
125 119 119 112 101 94 92 98 106 108 114 113 104 104 114 127 136 152 169 185 192 204 206 206 189 176 161 159 171 184 197 205 203 200 200 204 200 199 198 183 182 188 198 197 187 185 190 187 188 182 179 176 158 186 199 164 289 290 298 301 286 274 288 321 322 320 309 303 307 311 318 323 328 329 333 331 333 333 335 339 340 339 339 342 345
113 108 114 116 114 106 110 107 108 112 121 129 137 146 147 151 160 171 186 200 192 192 192 184 184 179 176 175 178 185 197 205 205 206 206 206 206 196 191 186 184 188 197 192 176 185 190 190 189 187 186 179 170 177 158 159 218 235 270 274 285 291 303 309 306 298 294 297 307 313 319 320 324 331 330 325 329 338 334 337 341 345 345 343 346
118 128 126 116 112 117 119 119 120 117 117 114 120 127 136 138 146 163 176 192 180 185 194 188 187 190 185 183 187 195 200 205 211 204 201 203 197 191 183 183 183 191 190 181 177 181 184 192 190 182 182 181 161 156 193 175 198 223 235 250 264 286 266 285 292 290 289 293 296 304 318 318 323 325 329 330 331 336 335 341 343 346 348 348 345
121 120 110 113 124 129 128 127 119 120 122 125 126 129 133 143 153 172 173 177 195 200 204 203 213 207 203 198 198 206 207 209 207 207 198 193 192 188 182 182 190 195 191 183 184 191 192 191 186 182 177 175 181 173 163 190 209 229 238 240 256 297 7 345 288 280 282 297 295 298 304 312 322 326 331 330 333 335 335 344 344 350 348 352 350
132 125 127 136 139 136 137 135 136 136 131 134 134 144 147 159 169 181 192 201 204 205 213 212 212 212 214 213 210 210 210 209 211 206 203 197 186 183 182 188 193 196 194 192 188 189 191 190 184 189 184 180 183 185 178 192 201 215 215 248 96 76 304 284 286 304 315 293 283 293 297 306 320 320 324 326 334 334 339 342 345 344 348 351 351
141 136 138 136 137 132 132 132 135 134 139 146 147 149 154 169 175 198 207 222 230 230 229 224 222 218 218 214 213 216 212 214 215 215 205 193 187 184 182 185 191 196 200 194 193 190 193 189 185 191 192 192 188 195 202 202 210 195 227 98 85 264 274 275 263 271 286 291 301 304 309 313 319 323 325 331 336 341 347 347 346 346 348 353 356
138 137 137 136 134 138 144 147 148 150 152 161 166 172 178 204 232 241 254 251 252 249 240 237 233 228 224 221 216 217 218 222 223 217 206 195 188 185 185 186 193 197 200 196 193 191 193 189 192 192 196 194 197 198 210 207 215 207 88 78 237 286 282 287 288 281 295 289 288 294 302 317 324 329 333 343 337 346 345 335 344 346 351 355 359